Location: Unspecified
(56.5167°N, 0.0000°E)
Time: 21:44:02
(UTC+02:00)

Cosmos 1674 - Visible Passes

Search period start: 28 July 2015 00:00
Search period end: 07 August 2015 00:00
Orbit: 505 x 532 km, 82.5° (Epoch: 27 July)

Date Brightness Start Highest point End Pass type
(mag) Time Alt. Az. Time Alt. Az. Time Alt. Az.
28 Jul 5.7 04:03:36 10° NNE 04:05:55 15° ENE 04:08:20 10° E visible
29 Jul 5.8 03:49:39 10° NNE 03:51:40 14° NE 03:53:48 10° E visible
30 Jul 5.8 03:35:45 10° NNE 03:37:25 12° NE 03:39:11 10° E visible
31 Jul 5.9 03:21:57 10° NE 03:23:08 11° NE 03:24:27 10° ENE visible
31 Jul 3.2 04:55:56 10° N 04:59:49 65° ENE 05:03:41 10° SSE visible
01 Aug 6.1 03:08:36 10° NE 03:08:52 10° NE 03:09:17 10° ENE visible
01 Aug 3.5 04:41:47 10° N 04:45:38 56° ENE 04:49:28 10° SSE visible
02 Aug 3.7 04:27:38 10° N 04:31:26 49° ENE 04:35:15 10° SSE visible
03 Aug 3.9 04:13:29 10° N 04:17:14 43° ENE 04:20:59 10° SE visible
04 Aug 4.2 03:59:21 10° N 04:03:02 38° ENE 04:06:42 10° SE visible
05 Aug 4.4 03:45:13 10° N 03:48:48 34° ENE 03:52:24 10° SE visible
05 Aug 3.6 05:21:05 10° NNW 05:24:35 31° W 05:28:03 10° SSW visible
06 Aug 4.6 03:31:05 10° N 03:34:34 30° ENE 03:38:05 10° SE visible
06 Aug 3.5 05:06:49 10° NNW 05:10:26 36° W 05:14:01 10° SSW visible
